Vorticity
nan nan nan nan nan nan nan nan nan nan nan nan nan nan nan nan nan nan nan nan nan nan nan nan nan nan nan nan nan nan nan nan nan nan nan nan nan nan nan nan nan nan nan nan nan nan nan nan nan nan nan nan nan nan nan nan nan nan nan nan nan nan nan nan nan nan nan nan nan nan nan nan nan nan nan nan nan nan nan nan nan nan nan nan nan nan
nan 8 8 8 9 9 9 8 10 10 7 6 6 5 3 4 8 11 15 16 15 14 12 11 11 11 12 12 9 7 8 6 6 6 6 7 8 8 9 10 10 10 10 10 10 11 12 13 12 11 10 8 7 6 7 9 10 12 12 13 13 15 16 16 18 18 18 17 15 15 14 13 13 13 13 12 12 12 11 11 10 10 10 10 11 nan
nan 10 9 11 11 10 7 8 11 11 10 8 6 3 2 8 12 14 14 16 17 15 12 10 10 11 13 11 9 9 7 6 6 6 7 7 8 9 11 12 12 12 11 11 11 12 13 13 13 11 9 8 7 6 8 11 12 13 14 14 14 14 14 15 16 17 18 18 17 16 15 14 14 13 12 12 12 12 12 12 11 11 11 11 10 nan
nan 9 9 11 11 10 7 8 11 13 13 11 8 8 11 17 17 16 13 13 12 12 11 9 10 12 14 12 10 8 5 5 5 5 6 7 8 9 12 14 14 13 12 11 11 11 11 12 11 10 8 6 7 8 10 13 14 14 15 15 14 14 14 13 13 15 17 18 18 18 17 16 14 13 12 12 12 12 12 12 11 11 12 12 11 nan
nan 8 9 10 11 11 11 11 12 13 13 13 13 15 18 19 17 15 13 12 11 11 11 12 12 12 11 9 6 3 3 4 4 5 6 7 9 11 14 16 15 14 12 11 11 10 10 10 9 8 7 7 8 10 13 15 16 15 15 15 14 13 13 13 13 14 15 17 17 18 18 17 16 14 13 12 12 11 11 11 11 11 11 11 11 nan
nan 10 11 10 10 10 12 12 12 12 14 15 16 17 18 17 16 14 12 11 12 12 12 11 11 11 9 5 2 2 6 7 7 8 9 11 13 15 17 17 15 13 12 11 11 10 9 9 8 8 8 8 9 11 14 16 17 16 15 14 14 13 14 15 15 14 14 14 15 16 17 17 17 16 14 13 12 11 11 10 10 10 10 11 11 nan
nan 12 11 9 8 8 8 9 10 11 12 13 15 18 19 19 16 13 9 9 10 11 10 10 10 11 10 6 6 9 13 14 16 18 18 20 21 21 19 16 14 11 10 10 10 10 10 9 9 9 9 9 10 12 14 15 15 15 14 13 13 13 14 14 14 13 12 11 12 13 14 16 16 16 15 14 13 12 11 11 10 10 10 11 11 nan
nan 12 9 6 5 6 7 8 10 11 11 12 15 17 18 17 13 10 9 9 10 9 9 9 9 10 9 9 11 14 15 17 20 22 23 27 26 23 18 14 12 10 10 11 11 12 11 10 9 9 8 9 10 12 13 13 13 13 13 12 12 10 10 11 11 11 10 10 10 10 12 14 14 15 15 15 14 13 12 11 10 9 9 10 12 nan
nan 9 6 5 4 6 9 11 11 12 15 16 16 14 13 10 7 7 9 10 10 8 7 7 8 9 9 10 12 13 12 13 13 11 13 15 12 9 8 9 12 13 12 13 13 13 12 11 9 8 8 9 11 14 15 14 12 11 11 11 9 7 7 9 9 10 10 10 10 10 11 12 13 13 14 15 15 14 13 11 10 9 9 9 10 nan
nan 5 4 6 8 10 12 13 15 17 19 17 14 10 8 6 6 6 7 8 7 6 6 7 9 10 11 12 12 12 13 14 11 9 7 3 -1 -1 4 8 12 12 12 15 16 15 14 11 9 7 8 11 14 17 17 14 12 10 8 8 9 7 7 8 9 10 11 11 11 12 13 14 15 15 15 15 15 15 13 12 11 10 9 8 9 nan
nan 6 7 9 13 16 17 17 18 17 15 13 11 9 5 5 5 5 5 7 7 7 8 10 11 11 11 12 13 15 17 17 18 17 16 12 12 15 18 19 18 17 20 22 21 19 15 11 9 9 11 14 16 17 14 12 11 10 9 9 9 8 7 8 9 10 11 12 12 13 15 17 18 19 18 18 18 17 15 14 13 11 10 8 8 nan
nan 8 11 14 17 19 19 18 14 10 6 6 5 5 5 6 6 6 9 9 9 9 11 13 13 12 11 13 15 16 15 14 14 16 19 20 23 26 29 29 28 29 30 28 27 23 17 14 13 14 15 17 16 14 11 10 9 10 11 10 9 8 7 8 9 10 11 12 13 14 16 18 20 20 20 20 20 20 19 19 17 14 11 10 9 nan
nan 9 13 17 17 16 12 8 4 2 1 2 3 5 7 8 8 10 11 9 10 11 13 12 12 13 16 16 15 12 10 11 12 12 13 14 17 20 21 21 22 22 22 22 22 18 15 18 22 23 20 19 16 14 13 12 11 10 11 9 8 7 7 8 10 11 13 14 14 14 15 15 16 15 15 15 15 18 20 20 20 19 15 12 11 nan
nan 12 15 14 10 6 1 -1 -0 1 3 5 7 8 9 8 8 9 9 9 11 12 13 13 14 16 20 16 12 9 9 11 12 11 8 9 10 10 10 10 10 9 10 11 11 10 12 20 26 27 26 22 19 18 17 13 11 10 9 8 7 7 8 10 12 13 14 14 14 14 12 11 10 9 9 10 10 12 14 16 18 18 17 15 14 nan
nan 16 13 7 2 -0 0 3 5 7 7 8 9 9 9 9 10 11 10 10 12 15 18 18 17 16 13 10 8 7 8 10 10 8 6 7 7 7 7 10 8 7 8 8 8 9 15 21 22 21 22 18 15 11 7 8 8 7 7 6 7 8 10 13 14 14 14 13 13 13 10 8 7 7 8 9 10 10 10 11 13 15 17 18 16 nan
nan 14 7 3 3 4 6 8 8 9 10 10 10 10 10 11 11 11 11 13 17 20 20 17 15 13 9 7 6 7 10 11 9 6 6 8 8 7 9 11 9 9 9 9 10 12 18 17 15 14 14 11 8 6 5 6 5 5 5 6 8 10 13 14 14 13 11 9 9 8 7 6 6 8 9 11 12 12 12 11 11 12 15 17 17 nan
nan 8 5 6 8 9 10 9 10 10 12 12 11 11 11 10 11 12 15 18 19 16 10 6 7 10 10 9 9 9 10 11 9 7 8 9 9 9 11 10 9 9 9 10 11 12 13 13 12 12 10 5 5 6 6 4 3 3 4 7 10 11 11 11 10 9 8 7 6 5 5 6 6 7 9 10 12 13 14 14 13 12 13 15 16 nan
nan 4 6 8 10 10 9 10 11 12 11 11 11 11 9 10 12 15 16 14 10 5 2 4 7 7 6 7 7 6 8 10 8 7 8 10 10 11 11 10 10 10 10 11 11 11 11 12 11 8 1 -2 -1 1 1 2 4 5 7 10 10 10 8 8 7 7 7 6 6 6 7 7 7 7 7 8 9 11 15 17 16 15 13 13 15 nan
nan 5 7 9 9 8 7 8 9 10 10 10 8 7 8 12 14 15 12 8 5 3 5 7 7 7 7 4 2 3 8 10 9 8 9 10 10 10 11 12 12 12 12 12 12 13 14 15 11 6 -1 -0 -0 -0 1 3 6 9 11 11 10 8 6 6 6 7 8 8 8 8 9 10 10 10 9 8 8 9 13 16 18 19 16 13 13 nan
nan 7 8 8 8 9 10 10 9 8 6 5 5 6 11 15 15 13 10 7 6 6 8 8 8 8 9 6 5 6 8 9 10 11 13 12 13 14 16 16 16 15 13 14 16 17 16 14 12 10 7 4 2 2 4 7 9 11 11 9 8 6 5 6 7 8 9 10 10 11 12 14 16 16 15 13 12 12 14 18 21 22 19 15 12 nan
nan 9 7 6 7 9 9 8 7 5 3 4 8 13 17 17 15 11 7 6 6 8 9 9 9 9 8 8 8 8 8 12 12 13 15 15 15 16 19 18 17 15 13 16 18 16 12 9 9 9 5 1 2 4 8 11 12 11 9 7 5 5 5 7 9 10 11 12 13 14 16 17 19 19 19 19 18 17 18 21 23 24 22 18 14 nan
nan 8 7 8 8 8 7 7 8 9 9 12 15 16 17 13 10 7 5 7 8 9 9 9 9 9 9 10 10 11 13 15 13 12 13 13 14 14 13 12 12 13 16 16 13 10 7 7 6 4 2 2 5 9 11 13 11 8 6 5 4 5 7 9 11 12 13 14 15 15 15 14 14 15 16 18 19 19 18 18 18 19 20 19 16 nan
nan 8 9 12 13 13 12 12 13 14 17 17 15 12 10 7 5 4 6 8 9 10 11 11 11 11 12 12 13 15 17 15 15 14 12 11 10 9 8 10 11 12 12 8 6 5 6 7 7 7 9 10 13 14 13 11 8 6 4 5 6 8 10 11 12 13 13 13 13 11 9 7 7 8 11 13 14 14 13 12 11 11 12 14 13 nan
nan 10 12 14 13 11 9 7 7 7 10 11 10 9 6 3 3 4 7 9 10 12 12 11 11 13 14 13 13 15 16 15 15 15 11 10 8 7 9 13 13 11 7 4 4 6 9 10 10 12 15 18 17 14 11 8 6 6 6 7 9 10 12 12 12 12 11 10 8 6 4 4 6 8 10 11 11 11 10 9 8 7 8 9 10 nan
nan 5 5 2 -2 -5 -9 -9 -9 -8 -5 1 5 7 5 5 7 10 11 12 12 12 10 10 11 13 13 13 15 15 16 16 15 13 10 10 8 9 12 13 11 9 6 7 8 10 10 10 11 13 15 19 17 13 10 8 7 7 8 10 11 11 12 11 10 10 8 7 6 5 5 6 9 10 12 13 12 12 10 9 8 8 8 8 9 nan
nan -2 -5 -8 -10 -10 -9 -7 -6 -6 -3 3 3 2 5 11 14 15 14 13 12 11 11 12 12 12 12 13 15 16 16 17 15 12 9 8 9 12 13 11 8 6 7 9 9 9 8 9 11 14 15 17 17 15 11 10 10 10 10 11 11 11 10 8 8 8 8 8 8 8 8 9 10 11 12 13 12 11 10 10 9 9 10 12 16 nan
nan 8 5 4 4 6 8 8 8 8 10 8 4 2 9 15 15 14 12 12 11 11 11 12 11 12 12 13 13 13 12 12 11 10 9 9 11 12 9 6 6 6 9 11 10 8 9 12 14 16 15 14 15 15 13 12 11 12 12 10 10 9 8 7 7 9 10 10 10 9 9 10 11 12 13 12 12 11 10 10 10 11 14 19 26 nan
nan 15 12 11 11 12 14 16 17 17 16 10 8 13 21 21 16 13 11 10 10 10 10 9 10 12 13 11 10 8 8 8 9 10 11 11 10 7 4 5 7 9 13 14 13 13 17 19 19 18 15 11 10 12 14 14 15 16 15 12 10 9 9 9 10 11 11 10 9 8 8 10 12 12 13 12 12 11 11 10 12 17 25 27 27 nan
nan 13 13 15 16 18 22 25 23 18 14 12 15 22 27 23 16 11 10 9 10 10 10 9 10 11 10 9 8 8 10 11 11 10 10 10 8 6 5 7 9 11 15 15 16 19 22 22 20 17 12 8 8 10 13 16 20 22 21 18 16 15 13 12 12 12 11 9 8 8 9 12 12 13 13 12 12 12 13 12 15 24 34 30 22 nan
nan 18 21 22 25 27 29 27 22 17 14 15 20 26 28 21 15 11 10 11 11 11 10 10 10 10 9 10 12 14 15 12 9 6 7 10 10 8 8 10 11 11 13 14 15 17 18 19 16 11 7 6 8 9 11 15 19 21 21 22 23 20 15 13 13 12 11 10 10 10 12 13 13 13 13 13 14 15 16 16 20 25 28 23 18 nan
nan 18 20 20 22 23 22 19 17 16 18 22 26 29 25 18 14 12 12 12 12 11 10 10 10 9 9 11 12 14 12 7 3 3 7 12 11 9 9 11 11 11 10 9 9 10 13 16 13 8 4 6 9 10 10 12 14 16 16 18 19 17 14 14 14 14 14 13 13 13 14 14 13 13 14 15 17 18 19 20 21 19 17 16 15 nan
nan 14 14 14 15 15 14 13 14 15 18 22 24 23 18 14 12 11 12 12 11 10 9 9 9 10 10 9 8 8 6 2 0 2 7 12 11 10 10 10 9 9 8 8 7 8 11 11 8 5 5 8 11 12 12 13 14 14 12 13 14 13 13 16 17 18 17 17 18 18 17 16 16 16 17 19 20 21 20 21 20 16 10 14 15 nan
nan 11 11 11 12 12 11 11 11 12 13 15 15 14 15 14 12 12 12 11 10 9 9 9 10 10 11 10 9 8 4 1 -0 2 9 13 12 10 8 7 8 8 10 13 14 13 9 5 3 4 8 12 13 14 15 16 15 14 13 13 13 11 14 16 17 17 16 19 22 23 22 23 23 21 22 23 22 21 19 20 22 23 19 20 19 nan
nan 11 11 12 12 11 10 9 10 10 11 11 11 11 12 12 13 13 12 11 10 9 9 9 9 10 10 12 11 9 6 3 2 4 10 13 11 8 7 8 9 10 13 16 16 14 8 3 1 4 9 12 14 14 15 16 15 14 13 11 11 10 11 11 13 13 14 18 21 22 25 27 27 25 24 23 20 17 14 20 30 44 45 31 21 nan
nan 12 13 13 11 10 9 10 10 11 11 11 11 12 11 11 12 12 11 10 9 9 8 9 8 9 9 9 9 8 7 5 4 5 10 12 10 8 9 10 10 11 13 12 11 9 6 3 4 6 9 11 13 14 14 12 12 12 10 9 8 7 7 8 9 11 13 15 16 18 21 22 22 21 19 14 12 10 10 20 38 61 67 44 22 nan
nan 13 13 12 11 9 9 10 11 11 12 12 12 12 11 10 10 10 10 10 9 9 9 8 8 8 6 7 6 6 5 4 4 6 9 11 9 8 9 10 9 10 11 9 7 6 5 6 9 11 12 13 13 12 10 8 8 8 8 9 10 9 7 8 10 11 12 13 14 15 15 15 14 13 8 4 8 11 13 18 32 57 74 59 31 nan
nan 12 12 11 10 9 10 11 12 12 12 12 11 10 9 9 9 8 10 10 10 9 10 11 12 10 5 3 3 2 2 1 2 4 7 9 9 9 9 9 9 9 8 7 7 8 8 11 13 15 16 14 10 6 4 5 7 8 9 10 11 11 10 11 12 12 12 12 13 12 11 11 11 10 5 7 16 20 19 19 24 35 57 64 47 nan
nan 12 11 10 10 10 10 11 11 11 11 10 9 9 9 9 8 9 11 11 11 11 11 13 13 12 10 6 4 2 1 0 2 4 8 11 12 12 9 7 7 8 8 8 10 11 13 13 14 15 14 10 6 4 6 8 9 9 11 12 12 12 13 13 13 13 12 12 11 10 11 13 13 11 10 16 21 22 21 17 13 12 26 43 43 nan
nan 11 10 9 10 10 10 10 10 10 10 9 9 9 10 11 12 14 13 13 13 12 11 10 11 12 16 16 14 11 9 11 12 13 16 16 14 12 9 7 7 9 11 14 15 16 16 13 10 8 7 8 8 10 12 11 9 8 9 13 15 16 13 11 12 13 13 12 10 12 15 15 13 12 12 14 15 14 15 13 9 8 13 20 22 nan
nan 11 10 10 11 10 9 9 10 10 10 10 11 12 14 15 16 16 14 14 13 13 14 14 14 14 16 17 18 17 17 17 17 17 20 17 13 9 8 8 10 13 16 18 18 15 10 6 5 5 8 10 9 9 9 7 5 4 8 15 14 9 7 10 13 15 14 11 10 12 13 12 11 11 12 12 12 12 13 12 9 9 13 16 13 nan
nan 11 11 11 11 11 10 10 10 9 9 11 13 14 14 14 13 13 13 13 13 14 16 17 16 15 14 15 16 17 19 18 17 17 16 13 10 8 10 12 15 16 17 16 12 6 4 5 7 10 12 11 10 9 8 5 4 5 12 14 9 5 7 13 17 17 12 10 10 10 10 10 11 12 12 12 13 12 12 12 11 12 14 15 14 nan
nan 12 12 11 10 10 10 9 9 11 13 14 13 12 11 11 11 10 10 11 11 12 12 13 13 12 13 15 17 19 21 20 17 14 12 13 14 15 15 16 16 15 13 10 8 7 8 10 12 13 13 12 11 11 8 7 8 11 14 11 8 11 18 21 19 13 8 9 10 9 11 13 12 11 12 13 13 11 10 11 11 14 17 17 14 nan
nan 12 11 10 10 9 9 11 13 14 14 13 12 11 11 10 9 9 9 10 9 9 11 12 12 12 13 14 15 17 18 16 13 12 14 17 19 20 18 15 12 10 9 9 10 12 13 14 15 15 13 11 10 8 7 8 10 13 13 11 12 16 18 14 11 8 8 11 12 12 12 12 12 12 13 13 13 11 9 8 8 12 18 18 15 nan
nan 11 11 11 11 11 12 13 13 12 11 11 11 11 10 9 9 10 12 11 9 10 12 12 13 14 14 13 12 12 12 13 15 19 20 19 18 17 14 11 10 9 9 11 12 13 14 15 16 15 13 11 9 8 9 9 10 11 12 13 15 15 10 5 5 7 10 12 12 11 10 11 13 14 14 13 12 11 10 10 9 8 11 16 15 nan
nan 11 10 11 11 10 10 10 10 11 11 11 11 10 10 10 11 13 12 10 10 11 11 12 14 15 13 11 10 10 10 13 17 22 21 16 11 10 10 9 10 11 12 13 12 11 11 12 12 12 11 10 9 10 10 10 11 11 12 14 16 16 12 8 8 10 11 11 11 9 10 13 16 16 14 12 12 11 10 9 10 11 11 13 13 nan
nan 9 10 11 10 9 10 11 11 11 11 10 11 11 11 12 13 12 10 11 11 12 12 12 13 11 9 8 9 9 10 12 15 17 16 12 9 8 7 9 10 11 13 13 12 11 10 9 9 9 10 11 12 13 12 11 12 12 11 13 15 15 14 14 13 11 11 11 10 9 12 17 18 16 13 11 11 11 10 9 9 10 11 12 12 nan
nan 9 10 11 10 10 11 11 11 11 10 10 11 11 11 11 11 10 11 12 12 12 12 13 13 10 8 8 8 8 9 11 12 13 12 10 9 9 9 9 10 12 13 13 13 13 13 11 10 10 10 11 12 12 12 12 12 12 11 12 13 14 14 13 12 11 11 11 10 10 14 18 17 14 12 11 11 10 10 10 10 10 11 11 11 nan
nan 11 11 11 11 10 10 11 11 10 10 10 11 11 11 9 8 9 12 12 12 12 13 13 13 11 10 9 9 8 9 11 12 12 12 12 11 9 9 11 12 14 15 15 17 19 19 17 14 11 10 10 10 9 10 11 12 13 13 12 12 12 12 12 11 11 11 9 9 12 17 18 14 11 10 12 11 10 9 9 11 12 12 12 12 nan
nan 11 11 11 11 10 10 10 10 9 9 10 10 11 10 8 10 15 15 13 13 13 13 12 12 11 10 10 10 9 10 13 13 13 13 13 12 10 9 10 12 15 16 19 21 23 23 21 17 12 8 10 10 9 9 11 13 14 14 13 12 12 12 11 11 11 11 9 10 14 19 18 14 11 10 11 11 11 10 9 10 11 12 13 13 nan
nan 11 11 11 10 10 10 10 10 10 10 10 10 11 11 12 15 16 14 13 13 13 13 12 12 10 9 9 9 9 11 13 13 13 14 14 11 9 9 10 11 14 16 18 20 21 22 20 15 8 5 8 12 14 13 11 13 14 15 13 12 12 12 11 10 10 10 11 12 13 16 17 16 15 12 10 9 9 9 9 10 11 12 13 13 nan
nan nan nan nan nan nan nan nan nan nan nan nan nan nan nan nan nan nan nan nan nan nan nan nan nan nan nan nan nan nan nan nan nan nan nan nan nan nan nan nan nan nan nan nan nan nan nan nan nan nan nan nan nan nan nan nan nan nan nan nan nan nan nan nan nan nan nan nan nan nan nan nan nan nan nan nan nan nan nan nan nan nan nan nan nan nan
CAPE
nan nan nan nan nan nan nan nan nan nan nan 1 nan nan nan 1 nan nan nan 0 0 nan nan nan nan nan 0 64 100 100 120 124 127 127 121 114 115 115 112 125 125 129 139 147 147 156 165 173 173 188 202 202 172 172 142 127 127 141 171 225 225 259 258 236 236 201 168 145 134 134 139 147 148 148 147 153 160 160 160 162 162 170 178 209 209 232
nan nan nan nan nan nan nan nan nan nan 0 0 nan nan nan nan nan nan nan nan nan nan nan nan nan nan nan 7 87 87 112 130 133 133 125 116 116 116 118 127 127 145 157 169 169 186 204 215 215 242 250 228 181 181 150 136 136 145 176 233 233 290 317 308 308 266 216 170 154 154 151 144 141 141 137 135 133 133 131 126 126 127 138 170 170 192
nan nan 2 1 1 0 0 1 1 1 0 nan nan nan nan nan nan nan nan nan nan nan nan nan nan nan nan nan 86 86 105 125 129 129 125 121 121 121 126 140 140 161 176 196 196 224 254 284 284 282 264 221 185 185 164 156 156 166 192 243 243 284 322 342 342 321 268 215 180 180 166 155 145 145 132 130 125 125 129 124 124 125 122 134 134 146
2 6 5 5 5 2 2 1 nan nan nan nan nan nan nan nan nan nan nan nan nan nan nan nan nan nan nan nan 42 42 100 122 127 127 130 131 136 136 145 156 156 185 209 231 231 266 305 303 303 278 238 209 186 186 176 186 186 198 222 241 241 273 294 296 296 311 285 241 205 205 183 158 142 142 134 132 138 138 141 139 139 134 127 133 133 147
11 8 2 1 1 nan 0 nan nan nan nan nan nan nan nan nan nan nan nan nan nan nan nan nan nan nan nan nan 10 10 91 124 132 132 136 142 153 153 165 190 190 216 249 256 256 293 316 281 281 244 209 193 178 178 192 212 212 232 254 240 240 265 262 260 260 269 265 239 204 204 175 161 149 149 144 157 162 162 160 148 148 141 128 131 131 144
3 0 nan nan nan nan nan nan nan nan nan nan nan nan nan nan nan nan nan nan nan nan nan nan nan nan nan nan 15 15 85 122 135 135 143 158 171 171 189 219 219 249 258 261 261 261 265 233 233 202 184 183 191 191 222 261 261 304 327 340 340 336 342 308 308 280 255 232 220 220 195 178 166 166 172 176 173 173 159 143 143 139 132 128 128 122
1 nan nan nan nan nan nan nan 0 0 nan nan nan nan nan nan nan nan nan nan nan nan nan nan nan nan nan nan 39 39 88 104 123 123 136 161 182 182 214 234 234 256 232 229 229 230 208 192 192 185 178 192 223 223 270 320 320 348 374 389 389 399 380 315 315 262 234 228 219 219 202 191 192 192 188 189 170 170 156 137 137 130 125 121 121 112
4 nan nan nan nan nan nan nan nan nan nan nan 3 3 26 41 42 42 3 nan nan nan nan nan nan nan nan nan nan nan nan nan 5 5 53 104 127 127 126 137 137 137 144 144 144 157 172 179 179 188 204 243 300 300 355 375 375 355 332 327 327 315 280 273 273 253 242 231 210 210 213 215 223 223 198 168 145 145 139 131 131 127 129 139 139 161
1 nan nan nan nan nan nan nan nan nan nan 1 11 11 6 22 20 20 1 nan nan nan nan nan nan nan nan nan nan nan 0 25 27 27 59 26 6 6 42 63 63 93 129 142 142 157 175 189 189 212 228 272 335 335 388 336 336 283 260 246 246 219 209 227 227 229 218 209 214 214 211 210 202 202 174 155 139 139 137 139 139 131 130 150 150 201
nan nan nan nan nan nan nan nan nan nan 1 26 14 14 10 6 0 0 nan nan nan nan nan nan nan nan nan nan nan nan 1 55 140 140 138 67 77 77 50 46 46 45 122 148 148 174 192 207 207 230 254 290 348 348 330 224 224 186 184 161 161 175 165 169 169 179 178 193 192 192 196 190 179 179 168 152 157 157 152 143 143 129 127 138 138 173
nan nan nan nan nan nan nan nan 36 36 36 1 nan nan nan nan nan nan nan nan nan nan nan nan nan nan nan nan nan nan 13 2 nan nan 13 36 58 58 67 70 70 83 118 151 151 169 193 216 216 248 252 276 291 291 247 178 178 154 153 166 166 159 157 161 161 173 191 211 221 221 212 197 182 182 165 160 159 159 154 136 136 117 120 119 119 120
nan nan nan nan nan nan 1 33 28 28 nan nan nan nan nan nan nan nan nan nan nan nan nan nan nan nan nan nan 10 10 1 nan nan nan nan nan 1 1 11 16 16 41 65 105 105 147 186 220 220 217 208 197 218 218 186 140 140 147 159 166 166 167 153 163 163 173 205 234 260 260 256 218 203 203 183 162 157 157 145 126 126 114 110 108 108 101
nan nan nan nan nan 16 28 13 nan nan nan nan nan nan nan nan nan nan nan nan nan nan nan nan nan nan nan 2 23 23 nan nan nan nan nan nan nan nan 0 3 3 5 4 11 11 3 50 141 141 173 180 142 159 159 152 133 133 166 175 184 184 165 169 169 169 175 205 242 270 270 281 247 217 217 193 175 165 165 148 128 128 112 109 106 106 99
nan nan 9 34 34 24 0 nan nan nan nan nan nan nan nan nan nan nan nan nan nan nan nan nan nan nan 5 20 1 1 nan nan nan nan nan nan nan nan 1 6 6 3 0 0 0 nan 12 26 26 20 78 72 80 80 70 122 122 186 206 197 197 181 195 194 194 198 194 217 243 243 224 201 168 168 134 125 127 127 130 130 130 117 109 101 101 96
nan 19 46 30 30 2 nan nan nan nan nan nan nan nan nan nan nan nan nan nan nan nan nan nan nan 3 23 3 nan nan nan nan nan nan nan nan nan nan 0 nan nan nan nan nan nan nan 8 9 9 0 1 3 7 7 39 131 131 208 195 189 189 194 220 241 241 243 266 264 224 224 190 133 100 100 86 81 90 90 100 114 114 121 117 103 103 102
15 35 12 nan nan nan nan nan nan nan nan nan nan nan nan nan nan nan nan nan nan 3 16 26 26 3 nan nan nan nan nan nan nan nan nan nan nan nan nan nan nan nan nan nan nan 0 0 nan nan nan nan 10 94 94 169 221 221 189 186 188 188 202 227 246 246 259 261 224 180 180 136 98 81 81 73 70 81 81 85 91 91 105 113 109 109 101
16 2 nan nan nan nan nan nan nan nan nan 2 3 3 1 0 0 0 6 20 20 39 22 0 0 nan nan nan nan nan nan nan nan nan nan nan nan nan nan nan nan nan nan 0 0 nan nan nan nan nan 0 75 191 191 167 166 166 153 156 172 172 206 220 210 210 207 188 166 143 143 107 86 73 73 76 86 90 90 81 75 75 83 106 111 111 99
nan nan nan nan nan nan nan nan nan nan 0 6 8 8 3 3 13 13 46 61 61 11 nan nan nan nan nan nan nan nan nan nan nan nan nan nan nan nan nan nan nan nan nan nan nan nan nan nan nan nan 36 144 135 135 119 111 111 128 139 170 170 197 201 184 184 154 132 121 109 109 87 72 64 64 69 83 98 98 92 78 78 85 95 114 114 105
1 nan nan nan nan nan nan 0 3 3 9 17 18 18 9 11 36 36 57 7 7 nan nan nan nan nan nan nan nan nan nan nan 0 0 nan nan nan nan nan nan nan nan nan nan nan nan nan 6 6 66 117 111 101 101 97 97 97 118 144 180 180 179 171 134 134 113 111 101 83 83 64 54 47 47 47 49 58 58 66 83 83 87 94 103 103 99
5 1 1 0 0 0 1 5 14 14 31 35 23 23 16 31 39 39 0 nan nan nan nan nan nan nan nan nan nan nan nan nan 0 0 nan nan nan nan nan nan nan 0 2 nan nan nan 1 3 3 10 54 77 88 88 90 109 109 129 151 184 184 153 124 107 107 98 98 87 78 78 62 50 44 44 35 31 19 19 31 65 65 88 96 91 91 89
4 1 3 1 1 2 5 9 25 25 48 42 20 20 26 29 nan nan nan nan nan nan nan nan nan nan nan 0 1 1 nan 0 1 1 0 nan nan nan 1 10 10 13 7 7 7 22 6 nan nan nan 22 65 91 91 104 137 137 170 172 160 160 135 108 95 95 92 85 79 78 78 68 66 60 60 54 41 34 34 45 82 82 102 98 86 86 77
6 7 6 2 2 4 21 14 38 38 40 24 28 28 31 nan nan nan nan nan nan nan nan nan nan 1 3 7 7 7 0 nan 0 0 0 0 11 11 17 9 9 7 21 29 29 8 0 nan nan nan 16 78 111 111 131 163 163 186 177 148 148 125 103 89 89 90 83 93 97 97 102 83 79 79 66 70 69 69 80 98 98 97 94 76 76 69
9 10 6 1 1 2 16 14 8 8 19 30 51 51 15 nan nan nan nan nan nan 0 1 3 3 6 8 10 4 4 0 nan 0 0 8 24 33 33 6 4 4 35 45 23 23 2 nan nan nan nan 25 121 131 131 157 172 172 175 146 126 126 113 105 100 100 102 103 114 116 116 104 76 61 61 58 68 74 74 82 71 71 69 71 65 65 60
8 3 nan nan nan nan 1 4 4 4 19 47 36 36 11 nan nan nan nan 0 0 2 5 7 7 8 6 4 1 1 1 11 36 36 34 25 8 8 1 23 23 58 27 5 5 nan nan nan nan 0 27 138 163 163 159 156 156 144 136 123 123 118 121 125 125 125 134 130 118 118 88 58 35 35 33 42 58 58 58 53 53 46 44 44 44 45
nan nan nan nan nan 24 33 35 58 58 60 62 54 54 24 8 8 8 1 0 0 3 8 8 8 9 5 18 7 7 1 3 24 24 22 15 7 7 20 49 49 25 4 nan nan nan 1 3 3 6 31 91 142 142 140 135 135 133 127 132 132 137 146 140 140 146 140 118 93 93 69 47 41 41 44 51 51 51 50 41 41 36 31 29 29 26
29 24 35 92 92 188 222 222 187 187 134 76 39 39 9 5 2 2 2 6 6 7 11 8 8 8 5 4 7 7 4 14 21 21 30 35 37 37 37 23 23 1 0 nan nan 2 5 7 7 6 16 34 96 96 104 111 111 126 135 146 146 151 152 141 141 128 108 86 71 71 60 56 50 50 52 53 53 53 45 36 36 30 21 16 16 13
160 192 243 250 250 216 168 138 142 142 171 144 48 48 8 3 5 5 12 13 13 13 14 11 11 9 9 8 8 8 18 38 45 45 56 65 69 69 30 5 5 0 4 3 3 3 11 12 12 11 10 0 21 21 83 95 95 118 141 147 147 146 133 115 115 92 81 74 69 69 64 58 56 56 55 56 49 49 40 30 30 23 17 10 10 9
205 211 183 142 142 103 92 105 124 124 138 139 140 140 65 14 13 13 16 16 16 17 13 10 10 12 13 17 23 23 24 25 21 21 48 48 20 20 7 1 1 0 3 2 2 5 32 25 25 16 2 nan nan nan 37 84 84 102 117 123 123 119 105 89 89 77 73 70 68 68 61 60 58 58 57 54 44 44 38 29 29 21 17 9 9 1
137 105 72 62 62 61 78 99 110 110 114 109 115 115 65 16 14 14 16 14 14 13 11 15 15 13 27 29 28 28 16 11 15 15 35 20 9 9 0 0 0 0 1 2 2 5 17 14 14 0 nan nan nan nan 9 55 55 72 86 93 93 88 80 78 78 72 72 68 62 62 58 56 56 56 52 49 41 41 33 26 26 20 15 11 11 4
10 18 18 29 29 48 56 34 69 69 98 97 96 96 68 19 13 13 10 8 8 8 12 22 22 26 37 31 15 15 7 5 20 20 20 4 1 1 nan 0 0 1 4 4 4 6 5 1 1 nan nan nan nan nan nan 1 1 7 29 66 66 62 66 69 69 70 67 63 59 59 58 54 54 54 47 42 36 36 32 27 27 20 15 11 11 8
nan nan nan nan nan 2 2 nan 21 21 72 93 91 91 63 13 7 7 7 8 8 12 16 28 28 32 29 17 11 11 7 6 13 13 1 nan 1 1 1 1 1 2 2 3 3 7 12 0 0 nan nan nan nan nan nan nan nan nan nan 7 7 26 51 57 57 60 60 63 58 58 58 52 50 50 43 38 35 35 33 28 28 22 13 13 13 9
nan nan nan 0 0 4 6 3 1 1 0 2 2 2 20 21 15 15 7 9 9 15 18 20 20 21 22 17 9 9 9 nan 4 4 2 nan 1 1 0 nan nan 0 nan 1 1 3 4 2 2 nan nan nan nan nan nan nan nan nan nan nan nan nan 23 39 39 40 34 41 40 40 40 39 37 37 35 36 32 32 29 25 25 22 13 8 8 7
nan nan nan 3 3 4 3 1 0 0 1 0 0 0 0 5 25 25 13 10 10 11 9 11 11 9 11 9 6 6 2 nan 10 10 22 nan nan nan nan nan nan nan nan 2 2 9 4 nan nan nan nan nan nan nan nan nan nan 0 nan nan nan nan 5 12 12 7 12 15 17 17 28 30 33 33 35 33 28 28 29 30 30 30 18 7 7 2
nan nan 4 6 6 3 1 nan nan nan 0 0 5 5 3 2 4 4 9 5 5 3 0 0 0 0 2 0 1 1 nan nan 11 11 17 nan nan nan nan nan nan nan 0 10 10 8 0 nan nan nan nan nan nan nan nan nan nan nan nan nan nan nan nan nan nan nan 0 1 0 0 6 11 25 25 26 24 24 24 30 35 35 27 18 2 2 nan
nan 0 8 3 3 1 1 0 nan nan 0 0 0 0 1 1 0 0 1 2 2 1 nan nan nan nan nan nan nan nan nan nan 3 3 20 nan nan nan nan nan nan nan 6 14 14 3 nan nan nan nan nan nan nan nan nan nan nan nan nan nan nan nan nan nan nan nan nan nan 1 1 1 2 6 6 11 18 23 23 28 31 31 15 0 2 2 nan
nan 1 8 3 3 1 0 0 nan nan nan nan nan nan nan nan nan nan nan nan nan 1 4 0 0 nan nan nan nan nan nan nan 3 3 16 nan nan nan nan nan nan 1 13 8 8 nan nan nan nan 0 5 1 nan nan nan nan nan nan nan nan nan nan nan nan nan nan nan 0 2 2 0 0 3 3 4 19 24 24 25 19 19 10 nan 1 1 1
1 6 6 1 1 nan 0 nan nan nan nan nan nan nan nan nan nan nan nan nan nan nan nan 2 2 2 9 nan nan nan nan nan nan nan 0 nan nan nan nan 2 2 23 9 nan nan nan nan nan nan nan 0 nan nan nan nan nan nan nan nan nan nan nan nan nan nan nan nan 4 1 1 0 2 1 1 4 16 17 17 17 13 13 8 4 nan nan nan
1 2 2 0 0 nan nan nan nan nan nan nan nan nan nan nan nan nan nan nan nan nan nan nan nan nan 6 17 1 1 nan nan nan nan nan nan nan nan 0 6 6 9 nan nan nan nan nan nan nan nan nan nan nan nan nan nan nan nan nan nan nan nan nan nan nan nan 3 5 2 2 3 2 0 0 0 3 2 2 2 0 0 4 4 0 0 nan
nan 0 1 1 1 0 nan nan nan nan nan nan nan nan nan nan nan nan nan nan nan nan nan nan nan nan nan nan nan nan 1 nan nan nan nan nan nan nan 1 0 0 nan nan nan nan nan nan nan nan nan nan nan nan nan nan nan nan nan nan nan nan nan nan nan nan 1 9 nan 1 1 1 nan nan nan nan nan 0 0 nan nan nan 0 0 nan nan nan
1 1 1 5 5 nan nan nan nan nan nan nan 0 0 nan nan nan nan nan nan nan nan nan nan nan nan nan nan nan nan nan nan nan nan nan nan 0 0 nan nan nan nan nan nan nan 0 nan nan nan nan nan nan nan nan nan nan nan nan 1 nan nan nan nan nan nan nan 0 nan nan nan nan nan nan nan nan nan 0 0 nan nan nan nan nan nan nan nan
6 1 1 nan nan nan nan nan nan nan nan nan nan nan nan nan nan nan nan nan nan nan nan nan nan nan nan nan nan nan nan nan 0 0 nan nan nan nan nan nan nan nan 0 0 0 nan nan nan nan nan nan nan nan nan nan nan nan 2 4 nan nan nan nan nan nan nan nan nan nan nan 0 0 nan nan nan nan nan nan nan nan nan nan nan nan nan nan
15 6 0 nan nan nan nan nan nan nan nan nan nan nan nan nan nan nan nan nan nan nan nan nan nan nan nan nan nan nan nan nan nan nan nan nan nan nan nan 0 0 3 nan nan nan 0 0 0 0 nan nan nan nan nan nan nan nan 0 0 nan nan nan nan nan nan nan nan nan nan nan 1 nan nan nan nan nan nan nan nan nan nan 0 nan nan nan nan
4 0 nan nan nan nan nan nan nan nan nan nan nan nan nan nan nan nan nan nan nan nan nan nan nan nan nan nan nan nan nan nan nan nan nan nan nan nan 0 2 2 4 4 7 7 4 3 6 6 1 nan nan nan nan nan nan nan nan nan nan nan nan nan nan nan nan nan nan nan nan nan nan nan nan nan nan nan nan nan nan nan 1 1 nan nan nan
1 nan nan nan nan nan nan nan nan nan nan nan nan nan nan nan nan nan nan nan nan nan nan nan nan nan nan nan nan nan nan nan nan nan nan 2 3 3 1 nan nan nan nan 7 7 8 6 6 6 1 nan nan nan nan nan nan nan nan nan nan nan nan nan nan nan nan nan nan nan nan nan nan nan nan nan nan nan nan nan nan nan nan nan nan nan nan
nan nan nan nan nan nan nan nan nan nan nan nan nan nan nan nan nan nan nan nan nan nan nan nan nan nan nan nan 0 0 nan nan nan nan nan 12 23 23 nan nan nan nan nan 5 5 6 8 4 4 1 nan nan nan nan nan nan nan nan nan 2 2 8 2 nan nan nan nan nan nan nan nan nan nan nan nan nan nan nan nan nan nan nan nan nan nan nan
nan nan nan nan nan nan nan nan nan nan nan nan nan nan nan nan nan nan nan nan nan nan nan nan nan nan nan 1 0 0 nan nan 0 0 0 nan nan nan nan nan nan nan nan 0 0 1 1 2 2 3 1 nan nan nan nan nan nan nan 2 7 7 2 nan nan nan nan nan nan nan nan nan nan nan nan nan nan nan nan nan nan nan nan nan nan nan nan
nan nan nan nan nan nan nan nan nan nan nan nan nan nan nan nan nan nan nan nan nan nan nan nan nan nan 0 0 nan nan nan 1 6 6 4 nan nan nan nan nan nan nan nan nan nan nan nan nan nan 1 0 nan nan nan nan nan nan nan 0 0 0 nan nan nan nan nan nan nan nan nan nan nan nan nan nan nan nan nan nan nan nan nan nan nan nan nan
nan nan nan nan nan nan nan nan nan nan nan nan nan nan nan nan nan nan nan nan nan nan 0 nan nan nan nan nan 0 0 2 5 9 9 5 nan nan nan nan nan nan nan nan nan nan nan nan nan nan nan nan nan nan nan nan nan nan nan nan nan nan nan nan nan nan nan nan nan nan nan nan nan nan nan nan nan nan nan nan nan nan nan nan nan nan nan
nan nan nan nan nan nan nan nan nan nan nan nan nan nan nan nan 17 17 nan nan nan nan nan nan nan 0 nan nan 1 1 7 10 7 7 3 nan nan nan nan nan nan nan nan nan nan nan nan nan nan nan nan nan nan nan nan nan nan nan nan nan nan nan nan nan nan nan nan nan nan nan nan nan nan nan nan nan nan nan nan nan nan nan nan nan nan nan
nan nan nan nan nan nan nan nan nan nan nan nan nan nan nan nan nan nan nan nan nan nan nan nan nan 0 0 0 1 1 5 4 4 4 1 nan nan nan nan nan nan nan nan nan nan nan nan nan nan 1 12 7 nan nan nan nan nan nan nan nan nan nan nan nan nan nan nan nan nan nan nan nan nan nan nan nan nan nan nan nan nan nan nan nan nan nan
nan nan nan nan nan nan nan nan nan nan nan nan nan nan nan nan nan nan nan nan nan nan nan nan nan 0 0 0 1 1 4 0 2 2 1 nan nan nan nan nan nan nan nan nan nan nan nan nan nan nan nan 13 2 2 nan nan nan nan nan nan nan nan nan nan nan nan nan nan nan nan nan nan nan nan nan nan nan nan nan nan nan nan nan nan nan nan